Home   Weather   Accra   Past weeks

Flag for Ghana Past Weather in Accra, Ghana — Yesterday and Last 2 Weeks

Now
81 °F

Partly sunny.


Feels Like: 88 °F
Forecast: 81 / 88 °F
Wind: 6 mph from West

Location: Accra Airport

Current Time: Apr 29, 2017 at 9:27:28 am

Latest Report: Apr 29, 2017 at 7:00 am


Visibility: 5 mi

Pressure: 29.86 "Hg

Humidity: 94%

Dew Point: 79 °F

Location of AccraLocation

Past Weather in Accra — Graph

°F

Accra Temperature Yesterday

Maximum temperature yesterday: 88 °F (at 10:00 am)
Minimum temperature yesterday: 81 °F (at 4:00 am)
Average temperature yesterday: 84 °F

High & Low Weather Summary for the Past Weeks

 TemperatureHumidityPressure
High91 °F (Apr 20, 12:00 pm)100% (Apr 14, 11:00 am)29.95 "Hg (Apr 14, 11:00 am)
Low73 °F (Apr 25, 7:00 pm)63% (Apr 17, 12:00 pm)29.74 "Hg (Apr 18, 4:00 pm)
Average83 °F83%29.84 "Hg
* Reported Apr 14 7:00 am — Apr 29 7:00 am, Accra, Weather by CustomWeather, © 2017

Note: Actual official high and low records may vary slightly from our data, if they occured in-between our weather recording intervals... More about our weather records

Advertising

Accra Weather History for the Previous 24 Hours

Scroll right to see more
 ConditionsComfort  
Time TempWeatherWind HumidityBarometerVisibility
7:00 am
Sat, Apr 29
81 °FPartly sunny.6 mph94%29.86 "Hg5 mi
5:00 am81 °FPassing clouds.6 mph94%29.86 "HgN/A
4:00 am82 °FLight rain. Passing clouds.6 mph89%29.86 "HgN/A
3:00 am82 °FPartly cloudy.6 mph89%29.86 "HgN/A
1:00 am82 °FPassing clouds.8 mph89%29.86 "HgN/A
12:00 am84 °FPartly cloudy.7 mph84%29.89 "HgN/A
11:00 pm
Fri, Apr 28
82 °FPassing clouds.8 mph89%29.89 "HgN/A
10:00 pm84 °FPassing clouds.8 mph84%29.89 "HgN/A
9:00 pm84 °FPassing clouds.8 mph79%29.89 "HgN/A
8:00 pm84 °FPassing clouds.9 mph79%29.86 "HgN/A
7:00 pm84 °FPassing clouds.9 mph79%29.86 "HgN/A
6:00 pm84 °FPartly sunny.10 mph79%29.83 "HgN/A
5:00 pm86 °FScattered clouds.10 mph75%29.80 "HgN/A
4:00 pm86 °FScattered clouds.12 mph75%29.80 "HgN/A
3:00 pm88 °FPassing clouds.13 mph66%29.80 "HgN/A
2:00 pm88 °FPassing clouds.10 mph70%29.86 "HgN/A
1:00 pm88 °FScattered clouds.10 mph70%29.89 "HgN/A
12:00 pm88 °FScattered clouds.9 mph66%29.92 "HgN/A
11:00 am88 °FPassing clouds.9 mph70%29.92 "HgN/A
10:00 am88 °FPartly sunny.6 mph75%29.95 "HgN/A
9:00 am86 °FBroken clouds.5 mph79%29.95 "HgN/A
Weather by CustomWeather, © 2017

See weather overviewHow to use our weather pages